Weather in Cheremkhovo

Russia / Zabaykalsky Krai     51°27′34″N   112°43′39″E
temp.,
°C
wind,
m/s
gust,
m/s
humid.,
%
clouds,
%
prec.,
mm/h
press.,
hPa
HPBL,
m
18 may, tue
tue1800:00+7nw226193 0.0 100420
03:00+5wsw2261100 0.0 100517
06:00+4n3384100 0.6 1006399
09:00+5wsw3777100 2.5 1007580
12:00+9wsw5950100 0.2 10051900
15:00+14wnw71122100 0.3 10023319
18:00+14wnw7112171 0.0 10023082
21:00+9nnw333499 0.0 100335
19 may, wed
wed1900:00+5se0037100 0.0 100510
03:00+4sse1144100 0.0 100410
06:00+4ene1149100 0.0 100112
09:00+5nnw2266100 0.8 1001363
12:00+4sw1288100 1.0 1002418
15:00+12nnw574755 1.1 9991706
18:00+15wnw682739 0.0 9982518
21:00+9nw483718 0.0 1001137
20 may, thu
thu2000:00+4w1145100 0.0 100411
03:00+4n1147100 0.0 100410
06:00+5ne2259100 0.1 100351
09:00+8se3558100 0.4 1000554
12:00+14ese2349100 0.1 9981044
15:00+18ene133998 0.1 9971512
18:00+14n1269100 1.6 999348
21:00+11nne4674100 1.6 1000120
21 may, fri
fri2100:00+7ene6127570 0.0 1003545
03:00+6ene61375100 0.1 1002654
06:00+5ene61179100 0.0 1000651
09:00+7ene71178100 0.1 1000680
12:00+8ene7875100 0.1 999868
15:00+9ene71070100 0.3 998865
18:00+9ne7872100 0.6 996690
21:00+6ne4884100 1.5 999522
22 may, sat
sat2200:00+4nnw1391100 2.3 1002282
03:00+4se1189100 2.5 1002252
06:00+4wnw1289100 0.1 1002170
09:00+5w478382 0.1 1003827
12:00+7w795789 0.1 10031472
15:00+9w784492 0.1 10021915
18:00+9w794596 0.2 10011880
21:00+6wnw610605 0.2 1002741